STARLINK-1633, 46171

Orbit data source: Space-Track

STARLINK-1633, 46171 is a payload satellite owned by SpaceX/Seattle (US) in LEO that was launched on Tue, 18 Aug 2020 UTC via an FALCON 9 launch vehicle from the Air Force Eastern Test Range (AFETR). Payload-class satellites include a variety of spacecraft equipped with specific instruments for various scientific and technological missions. These include communications satellites like Starlink; space stations such as the ISS; scientific satellites like the Hubble; Earth observation satellites from companies like Planet Labs, Umbra, and HawkEye 360; GPS; miniature CubeSats for education and research; and military/defense satellites.

Loading next visibility...
Identifier
46171, 2020-057BG
Orbit
LEO
Country
Flag of USUS
Related business
Manufacturer
SpaceX/Seattle
Mission
Operational Commercial Communications
Bus & Motor
STARLINK, Unknown motor
Mass
260 kg wet, ~248 kg dry
Launch date (UTC)
2020-08-18 (5 years ago)
Launch vehicle
FALCON 9
Launch site
Air Force Eastern Test Range (AFETR)
Object type
Payload
Rocket body
Debris
Shape & HBR
Box + 1 Pan, 10.1 m
Radar Cross Section
13.562 m², Large (>1 m²)

Expand to show TLE details & history
Last TLE update: 13 hours ago

TLE from 13 hours ago
0 STARLINK-1633
1 46171U 20057BG  25287.33335648  .01074179  00000-0  56335-1 0  9994
2 46171  53.0541 233.5726 0001389  80.4972 252.7065 15.12531875  5806
Epoch: 2025-10-14T08:00Z
TLE epoch observation values (Epoch: 2025-10-14T08:00:01.999Z)
Latitude
-21.3147°
Longitude
73.47323°
Altitude
534.743 km
Speed
7.595 km/s
True Right ascension
14h 26m 25s
True Declination
-21° 11' 41"
Sunlit
Object was in daylight at epoch
Visualization orbit readout
Latitude
Unknown
Longitude
Unknown
Altitude
Unknown
Speed
Unknown
Apparent Right ascension
Unknown
Apparent Declination
Unknown
Sunlit
N/A
Visualization observer readout
Local Sidereal Time
15:26:40
Azimuth
Unknown
Elevation
Unknown
Doppler factor
Unknown
Orbital elements
Apogee altitude
529.713 km
Perigee altitude
527.794 km
Semi-major axis
6,906.89 km
Eccentricity
0.00014
Inclination
53.0541°
RAAN
233.5726°
Arg. of periapsis
80.4972°
True anomaly
252.6913°
Mean anomaly
252.7065°
Eccentric anomaly
252.6989°
Mean motion
3.78111 °/min
Orbital period
95.21 mins
BSTAR
0.056335
Loading maneuver chart data...
Computing Atmospheric mass density...
Loading historical data...
Loading historical data...
Loading historical data...
Loading historical data...
Loading historical data...
Loading historical data...
Loading historical data...

Documentation

Showing up to 5 results
|